Tracking 30995 objects as of 5-Jul-2025
HD Live streaming from Space Station
objects crossing your sky now

COSMOS 2251 DEB

Track COSMOS 2251 DEB now!
10-day predictions


NORAD ID: 35037
Int'l Code: 1993-036AHA
Perigee: 506.6 km
Apogee: 531.7 km
Inclination: 74.0 °
Period: 94.9 minutes
Semi major axis: 6890 km
RCS: 0.0081 m2 (small)
Launch date: June 16, 1993
Source: Commonwealth of Independent States (former USSR) (CIS)
Launch site: PLESETSK MISSILE AND SPACE COMPLEX (PKMTR)

Note: This is SATELLITE DEBRIS
Your satellite tracking list
Your tracking list is empty




NASA's NSSDC Master Catalog

Two Line Element Set (TLE):
1 35037U 93036AHA 25184.15234598  .00044441  00000-0  21676-2 0  9997
2 35037  73.9739 126.4628 0018183 299.9067  60.0323 15.17949310862572
Source of the keplerian elements: AFSPC